START_TIME,STEP,MOV.,AL01,t_acc.,AL02,t_acc.,E37,t_acc.,H21,t_acc.
1989-08-24T09:00:35.200 ,2,0,0.,24.0,0.,24.0,0.,24.0,0.,24.0
1989-08-24T09:00:59.200 ,1,1,0.,24.0,0.,24.0,0.,24.0,0.,24.0
1989-08-24T09:01:23.200 ,1,0,0.,24.0,0.,24.0,0.,24.0,0.,24.0
1989-08-24T09:01:47.200 ,0,1,0.,24.0,0.,24.0,0.,24.0,0.,24.0
1989-08-24T09:02:11.200 ,0,0,0.,24.0,0.,24.0,0.,24.0,0.,24.0
1989-08-24T09:02:35.200 ,0,1,0.,24.0,0.,24.0,0.,24.0,0.,24.0
1989-08-24T09:02:59.200 ,0,0,0.,24.0,0.,24.0,0.,24.0,0.,24.0
1989-08-24T09:03:23.200 ,1,1,0.,24.0,0.,24.0,0.,24.0,0.,24.0
1989-08-24T09:03:47.200 ,1,0,0.,24.0,0.,24.0,0.,24.0,0.,24.0
1989-08-24T09:04:11.200 ,2,1,0.,24.0,0.,24.0,0.,24.0,0.,24.0
1989-08-24T09:04:35.200 ,2,0,0.,24.0,0.,24.0,0.,24.0,0.,24.0
1989-08-24T09:04:59.200 ,3,1,0.,24.0,0.,24.0,0.,24.0,0.,24.0
1989-08-24T09:05:23.200 ,3,0,0.,24.0,0.,24.0,0.,24.0,0.,24.0
1989-08-24T09:05:47.200 ,4,1,0.,24.0,0.,24.0,0.,24.0,0.,24.0
1989-08-24T09:06:11.200 ,4,0,0.,24.0,0.,24.0,0.,24.0,0.,24.0
1989-08-24T09:06:35.200 ,5,1,0.,24.0,0.,24.0,0.,24.0,0.,24.0
1989-08-24T09:06:59.200 ,5,0,0.,24.0,0.,24.0,0.,24.0,0.,24.0
1989-08-24T09:07:23.200 ,6,1,0.,24.0,0.,24.0,0.,24.0,0.,24.0
1989-08-24T09:07:47.200 ,6,0,0.,24.0,0.,24.0,0.,24.0,0.,24.0
1989-08-24T09:08:11.200 ,7,1,8.,24.0,0.,24.0,0.,24.0,0.,24.0
1989-08-24T09:08:35.200 ,7,0,25.,24.0,0.,24.0,0.,24.0,0.,24.0
1989-08-24T09:08:59.200 ,7,1,31.,24.0,0.,24.0,0.,24.0,0.,24.0
1989-08-24T09:09:23.200 ,7,0,24.,24.0,0.,24.0,0.,24.0,0.,24.0
1989-08-24T09:09:47.200 ,6,1,25.,24.0,0.,24.0,0.,24.0,0.,24.0
1989-08-24T09:10:11.200 ,6,0,0.,24.0,0.,24.0,0.,24.0,0.,24.0
1989-08-24T09:10:35.200 ,5,1,0.,24.0,1.,24.0,0.,24.0,0.,24.0
1989-08-24T09:10:59.200 ,5,0,0.,24.0,0.,24.0,0.,24.0,0.,24.0
1989-08-24T09:11:23.200 ,4,1,0.,24.0,0.,24.0,0.,24.0,0.,24.0
1989-08-24T09:11:47.200 ,4,0,0.,24.0,0.,24.0,0.,24.0,0.,24.0
1989-08-24T09:12:11.200 ,3,1,0.,24.0,0.,24.0,0.,24.0,0.,24.0
1989-08-24T09:12:35.200 ,3,0,0.,24.0,0.,24.0,0.,24.0,0.,24.0
1989-08-24T09:12:59.200 ,2,1,0.,24.0,0.,24.0,0.,24.0,0.,24.0
1989-08-24T09:13:23.200 ,2,0,0.,24.0,0.,24.0,0.,24.0,0.,24.0
1989-08-24T09:13:47.200 ,1,1,0.,24.0,0.,24.0,0.,24.0,0.,24.0
1989-08-24T09:14:11.200 ,1,0,0.,24.0,1.,24.0,0.,24.0,0.,24.0
1989-08-24T09:14:35.200 ,0,1,0.,24.0,0.,24.0,0.,24.0,0.,24.0
1989-08-24T09:14:59.200 ,0,0,0.,24.0,0.,24.0,0.,24.0,0.,24.0
1989-08-24T09:15:23.200 ,0,1,0.,24.0,0.,24.0,0.,24.0,0.,24.0
1989-08-24T09:15:47.200 ,0,0,0.,24.0,0.,24.0,0.,24.0,0.,24.0
1989-08-24T09:16:11.200 ,1,1,0.,24.0,0.,24.0,0.,24.0,0.,24.0
1989-08-24T09:16:35.200 ,1,0,0.,24.0,0.,24.0,0.,24.0,0.,24.0
1989-08-24T09:16:59.200 ,2,1,1.,24.0,0.,24.0,0.,24.0,0.,24.0
1989-08-24T09:17:23.200 ,2,0,0.,24.0,0.,24.0,0.,24.0,0.,24.0
1989-08-24T09:17:47.200 ,3,1,0.,24.0,0.,24.0,0.,24.0,0.,24.0
1989-08-24T09:18:11.200 ,3,0,0.,24.0,0.,24.0,0.,24.0,0.,24.0
1989-08-24T09:18:35.200 ,4,1,0.,24.0,0.,24.0,0.,24.0,0.,24.0
1989-08-24T09:18:59.200 ,4,0,0.,24.0,0.,24.0,0.,24.0,0.,24.0
1989-08-24T09:19:23.200 ,5,1,0.,24.0,0.,24.0,0.,24.0,0.,24.0
1989-08-24T09:19:47.200 ,5,0,0.,24.0,0.,24.0,0.,24.0,0.,24.0
1989-08-24T09:20:11.200 ,6,1,0.,24.0,0.,24.0,0.,24.0,0.,24.0
1989-08-24T09:20:35.200 ,6,0,0.,24.0,0.,24.0,0.,24.0,0.,24.0
1989-08-24T09:20:59.200 ,7,1,8.,24.0,0.,24.0,0.,24.0,0.,24.0
1989-08-24T09:21:23.200 ,7,0,39.,24.0,0.,24.0,0.,24.0,0.,24.0
1989-08-24T09:21:47.200 ,7,1,27.,24.0,0.,24.0,0.,24.0,0.,24.0
1989-08-24T09:22:11.200 ,7,0,27.,24.0,0.,24.0,0.,24.0,0.,24.0
1989-08-24T09:22:35.200 ,6,1,12.,24.0,0.,24.0,0.,24.0,0.,24.0
1989-08-24T09:22:59.200 ,6,0,0.,24.0,0.,24.0,0.,24.0,0.,24.0
1989-08-24T09:23:23.200 ,5,1,0.,24.0,0.,24.0,0.,24.0,0.,24.0
1989-08-24T09:23:47.200 ,5,0,0.,24.0,0.,24.0,0.,24.0,0.,24.0
1989-08-24T09:24:11.200 ,4,1,0.,24.0,0.,24.0,0.,24.0,0.,24.0
1989-08-24T09:24:35.200 ,4,0,0.,24.0,0.,24.0,0.,24.0,0.,24.0
1989-08-24T09:24:59.200 ,3,1,0.,24.0,0.,24.0,0.,24.0,0.,24.0
1989-08-24T09:25:23.200 ,3,0,0.,24.0,0.,24.0,0.,24.0,0.,24.0
1989-08-24T09:25:47.200 ,2,1,0.,24.0,0.,24.0,0.,24.0,0.,24.0
1989-08-24T09:26:11.200 ,2,0,0.,24.0,0.,24.0,0.,24.0,0.,24.0
1989-08-24T09:26:35.200 ,1,1,0.,24.0,0.,24.0,0.,24.0,0.,24.0
1989-08-24T09:26:59.200 ,1,0,0.,24.0,0.,24.0,0.,24.0,0.,24.0
1989-08-24T09:27:23.200 ,0,1,0.,24.0,0.,24.0,0.,24.0,0.,24.0
1989-08-24T09:27:47.200 ,0,0,0.,24.0,0.,24.0,0.,24.0,0.,24.0
1989-08-24T09:28:11.200 ,0,1,0.,24.0,0.,24.0,0.,24.0,0.,24.0
1989-08-24T09:28:35.200 ,0,0,0.,24.0,1.,24.0,0.,24.0,0.,24.0
1989-08-24T09:28:59.200 ,1,1,0.,24.0,0.,24.0,0.,24.0,0.,24.0
1989-08-24T09:29:23.200 ,1,0,0.,24.0,0.,24.0,0.,24.0,0.,24.0
1989-08-24T09:29:47.200 ,2,1,0.,24.0,0.,24.0,0.,24.0,0.,24.0
1989-08-24T09:30:11.200 ,2,0,0.,24.0,0.,24.0,0.,24.0,0.,24.0
1989-08-24T09:30:35.200 ,3,1,0.,24.0,0.,24.0,0.,24.0,0.,24.0
1989-08-24T09:30:59.200 ,3,0,0.,24.0,0.,24.0,0.,24.0,0.,24.0
1989-08-24T09:31:23.200 ,4,1,0.,24.0,0.,24.0,0.,24.0,0.,24.0
1989-08-24T09:31:47.200 ,4,0,0.,24.0,0.,24.0,0.,24.0,0.,24.0
1989-08-24T09:32:11.200 ,5,1,0.,24.0,0.,24.0,0.,24.0,0.,24.0
1989-08-24T09:32:35.200 ,5,0,0.,24.0,0.,24.0,0.,24.0,0.,24.0
1989-08-24T09:32:59.200 ,6,1,0.,24.0,0.,24.0,0.,24.0,0.,24.0
1989-08-24T09:33:23.200 ,6,0,0.,24.0,0.,24.0,0.,24.0,0.,24.0
1989-08-24T09:33:47.200 ,7,1,10.,24.0,0.,24.0,0.,24.0,0.,24.0
1989-08-24T09:34:11.200 ,7,0,30.,24.0,0.,24.0,0.,24.0,0.,24.0
1989-08-24T09:34:35.200 ,7,1,23.,24.0,0.,24.0,0.,24.0,0.,24.0
1989-08-24T09:34:59.200 ,7,0,27.,24.0,0.,24.0,0.,24.0,0.,24.0
1989-08-24T09:35:23.200 ,6,1,19.,24.0,0.,24.0,0.,24.0,0.,24.0
1989-08-24T09:35:47.200 ,6,0,0.,24.0,0.,24.0,0.,24.0,0.,24.0
1989-08-24T09:36:11.200 ,5,1,0.,24.0,1.,24.0,0.,24.0,0.,24.0
1989-08-24T09:36:35.200 ,5,0,0.,24.0,1.,24.0,0.,24.0,0.,24.0
1989-08-24T09:36:56.200 ,0,0,,0,,0,,0,,0
1989-08-24T09:36:59.200 ,4,1,0.,24.0,0.,24.0,0.,24.0,0.,24.0
1989-08-24T09:37:23.200 ,4,0,0.,24.0,0.,24.0,0.,24.0,0.,24.0
1989-08-24T09:37:47.200 ,3,1,0.,24.0,0.,24.0,0.,24.0,0.,24.0
1989-08-24T09:38:11.200 ,3,0,0.,24.0,0.,24.0,0.,24.0,0.,24.0
1989-08-24T09:38:35.200 ,2,1,0.,24.0,0.,24.0,0.,24.0,0.,24.0
1989-08-24T09:38:59.200 ,2,0,0.,24.0,0.,24.0,0.,24.0,0.,24.0
1989-08-24T09:39:23.200 ,1,1,0.,24.0,0.,24.0,0.,24.0,0.,24.0
1989-08-24T09:39:47.200 ,1,0,0.,24.0,0.,24.0,0.,24.0,0.,24.0
1989-08-24T09:40:11.200 ,0,1,0.,24.0,0.,24.0,0.,24.0,0.,24.0
1989-08-24T09:40:35.200 ,0,0,0.,24.0,1.,24.0,0.,24.0,0.,24.0
1989-08-24T09:40:59.200 ,0,1,0.,24.0,0.,24.0,0.,24.0,0.,24.0
1989-08-24T09:41:23.200 ,0,0,0.,24.0,0.,24.0,0.,24.0,0.,24.0
1989-08-24T09:41:47.200 ,1,1,0.,24.0,0.,24.0,0.,24.0,0.,24.0
1989-08-24T09:42:11.200 ,1,0,0.,24.0,0.,24.0,0.,24.0,0.,24.0
1989-08-24T09:42:35.200 ,2,1,0.,24.0,0.,24.0,0.,24.0,0.,24.0
1989-08-24T09:42:59.200 ,2,0,0.,24.0,0.,24.0,0.,24.0,0.,24.0
1989-08-24T09:43:23.200 ,3,1,0.,24.0,0.,24.0,0.,24.0,0.,24.0
1989-08-24T09:43:47.200 ,3,0,0.,24.0,0.,24.0,0.,24.0,0.,24.0
1989-08-24T09:44:11.200 ,4,1,0.,24.0,0.,24.0,0.,24.0,0.,24.0
1989-08-24T09:44:35.200 ,4,0,0.,24.0,0.,24.0,0.,24.0,0.,24.0
1989-08-24T09:44:59.200 ,5,1,0.,24.0,0.,24.0,0.,24.0,0.,24.0
1989-08-24T09:45:23.200 ,5,0,0.,24.0,0.,24.0,0.,24.0,0.,24.0
1989-08-24T09:45:47.200 ,6,1,0.,24.0,0.,24.0,0.,24.0,0.,24.0
1989-08-24T09:46:11.200 ,6,0,0.,24.0,0.,24.0,0.,24.0,0.,24.0
1989-08-24T09:46:35.200 ,7,1,5.,24.0,0.,24.0,0.,24.0,0.,24.0
1989-08-24T09:46:59.200 ,7,0,21.,24.0,0.,24.0,0.,24.0,0.,24.0
1989-08-24T09:47:23.200 ,7,1,26.,24.0,0.,24.0,0.,24.0,0.,24.0
1989-08-24T09:47:47.200 ,7,0,31.,24.0,0.,24.0,0.,24.0,0.,24.0
1989-08-24T09:48:11.200 ,6,1,21.,24.0,0.,24.0,0.,24.0,0.,24.0
1989-08-24T09:48:35.200 ,6,0,0.,24.0,0.,24.0,0.,24.0,0.,24.0
1989-08-24T09:48:59.200 ,5,1,0.,24.0,0.,24.0,0.,24.0,0.,24.0
1989-08-24T09:49:23.200 ,5,0,0.,24.0,0.,24.0,0.,24.0,0.,24.0
1989-08-24T09:49:47.200 ,4,1,0.,24.0,0.,24.0,0.,24.0,0.,24.0
1989-08-24T09:50:11.200 ,4,0,0.,24.0,0.,24.0,0.,24.0,0.,24.0
1989-08-24T09:50:35.200 ,3,1,0.,24.0,0.,24.0,0.,24.0,0.,24.0
1989-08-24T09:50:59.200 ,3,0,0.,24.0,0.,24.0,0.,24.0,0.,24.0
1989-08-24T09:51:23.200 ,2,1,0.,24.0,0.,24.0,0.,24.0,0.,24.0
1989-08-24T09:51:47.200 ,2,0,0.,24.0,0.,24.0,0.,24.0,0.,24.0
1989-08-24T09:51:23.200 ,0,0,,0,,0,,0,,0
1989-08-24T09:51:47.200 ,0,0,,0,,0,,0,,0
1989-08-24T09:52:11.200 ,1,1,0.,24.0,0.,24.0,0.,24.0,0.,24.0
1989-08-24T09:52:35.200 ,1,0,0.,24.0,0.,24.0,0.,24.0,0.,24.0
1989-08-24T09:52:59.200 ,0,1,2.,24.0,0.,24.0,0.,24.0,0.,24.0
1989-08-24T09:53:23.200 ,0,0,0.,24.0,0.,24.0,0.,24.0,0.,24.0
1989-08-24T09:53:47.200 ,0,1,0.,24.0,0.,24.0,0.,24.0,0.,24.0
1989-08-24T09:54:11.200 ,0,0,0.,24.0,0.,24.0,0.,24.0,0.,24.0
1989-08-24T09:54:35.200 ,1,1,0.,24.0,0.,24.0,0.,24.0,0.,24.0
1989-08-24T09:54:59.200 ,1,0,0.,24.0,0.,24.0,0.,24.0,0.,24.0
1989-08-24T09:55:23.200 ,2,1,0.,24.0,0.,24.0,0.,24.0,0.,24.0
1989-08-24T09:55:47.200 ,2,0,0.,24.0,0.,24.0,0.,24.0,0.,24.0
1989-08-24T09:56:11.200 ,3,1,1.,24.0,0.,24.0,0.,24.0,0.,24.0
1989-08-24T09:56:35.200 ,3,0,0.,24.0,0.,24.0,0.,24.0,0.,24.0
1989-08-24T09:56:59.200 ,4,1,0.,24.0,0.,24.0,0.,24.0,0.,24.0
1989-08-24T09:57:23.200 ,4,0,0.,24.0,0.,24.0,0.,24.0,0.,24.0
1989-08-24T09:57:47.200 ,5,1,0.,24.0,0.,24.0,0.,24.0,0.,24.0
1989-08-24T09:58:11.200 ,5,0,0.,24.0,0.,24.0,0.,24.0,0.,24.0
1989-08-24T09:58:35.200 ,6,1,0.,24.0,0.,24.0,0.,24.0,0.,24.0
1989-08-24T09:58:59.200 ,6,0,0.,24.0,0.,24.0,0.,24.0,0.,24.0
1989-08-24T09:59:23.200 ,7,1,8.,24.0,0.,24.0,0.,24.0,0.,24.0
1989-08-24T09:59:47.200 ,7,0,31.,24.0,0.,24.0,0.,24.0,0.,24.0
1989-08-24T10:00:11.200 ,7,1,29.,24.0,0.,24.0,0.,24.0,0.,24.0
1989-08-24T10:00:35.200 ,7,0,36.,24.0,0.,24.0,0.,24.0,0.,24.0
1989-08-24T10:00:59.200 ,6,1,26.,24.0,0.,24.0,0.,24.0,0.,24.0
1989-08-24T10:01:23.190 ,6,0,0.,24.0,0.,24.0,0.,24.0,0.,24.0
1989-08-24T10:01:47.190 ,5,1,0.,24.0,0.,24.0,0.,24.0,0.,24.0
1989-08-24T10:02:11.190 ,5,0,0.,24.0,0.,24.0,0.,24.0,0.,24.0
1989-08-24T10:02:35.190 ,4,1,0.,24.0,0.,24.0,0.,24.0,0.,24.0
1989-08-24T10:02:59.190 ,4,0,0.,24.0,0.,24.0,0.,24.0,0.,24.0
1989-08-24T10:03:23.190 ,3,1,0.,24.0,0.,24.0,0.,24.0,0.,24.0
1989-08-24T10:03:47.190 ,3,0,0.,24.0,0.,24.0,0.,24.0,0.,24.0
1989-08-24T10:04:11.190 ,2,1,0.,24.0,0.,24.0,0.,24.0,0.,24.0
1989-08-24T10:04:35.190 ,2,0,0.,24.0,0.,24.0,0.,24.0,0.,24.0
1989-08-24T10:04:59.190 ,1,1,0.,24.0,0.,24.0,0.,24.0,0.,24.0
1989-08-24T10:05:23.190 ,1,0,0.,24.0,0.,24.0,0.,24.0,0.,24.0
1989-08-24T10:05:47.190 ,0,1,0.,24.0,0.,24.0,0.,24.0,0.,24.0
1989-08-24T10:06:11.190 ,0,0,0.,24.0,0.,24.0,0.,24.0,0.,24.0
1989-08-24T10:06:35.190 ,0,1,0.,24.0,0.,24.0,0.,24.0,0.,24.0
1989-08-24T10:06:59.190 ,0,0,0.,24.0,0.,24.0,0.,24.0,0.,24.0
1989-08-24T10:07:23.190 ,1,1,0.,24.0,0.,24.0,0.,24.0,0.,24.0
1989-08-24T10:07:47.190 ,1,0,0.,24.0,0.,24.0,0.,24.0,0.,24.0
1989-08-24T10:08:11.190 ,2,1,0.,24.0,0.,24.0,0.,24.0,0.,24.0
1989-08-24T10:08:35.190 ,2,0,0.,24.0,0.,24.0,0.,24.0,0.,24.0
1989-08-24T10:08:59.190 ,3,1,0.,24.0,0.,24.0,0.,24.0,0.,24.0
1989-08-24T10:09:23.190 ,3,0,0.,24.0,0.,24.0,0.,24.0,0.,24.0
1989-08-24T10:09:47.190 ,4,1,0.,24.0,0.,24.0,0.,24.0,0.,24.0
1989-08-24T10:10:11.190 ,4,0,0.,24.0,0.,24.0,0.,24.0,0.,24.0
1989-08-24T10:10:35.190 ,5,1,0.,24.0,0.,24.0,0.,24.0,0.,24.0
1989-08-24T10:10:59.190 ,5,0,0.,24.0,0.,24.0,0.,24.0,0.,24.0
1989-08-24T10:11:23.190 ,6,1,0.,24.0,0.,24.0,0.,24.0,0.,24.0
1989-08-24T10:11:47.190 ,6,0,0.,24.0,0.,24.0,0.,24.0,0.,24.0
1989-08-24T10:12:11.190 ,7,1,7.,24.0,0.,24.0,0.,24.0,0.,24.0
1989-08-24T10:12:35.190 ,7,0,25.,24.0,0.,24.0,0.,24.0,0.,24.0
1989-08-24T10:12:59.190 ,7,1,28.,24.0,0.,24.0,0.,24.0,0.,24.0
1989-08-24T10:13:23.190 ,7,0,38.,24.0,0.,24.0,0.,24.0,0.,24.0
1989-08-24T10:13:47.190 ,6,1,32.,24.0,0.,24.0,0.,24.0,0.,24.0
1989-08-24T10:14:11.190 ,6,0,0.,24.0,0.,24.0,0.,24.0,0.,24.0
1989-08-24T10:14:35.190 ,5,1,0.,24.0,0.,24.0,0.,24.0,0.,24.0
1989-08-24T10:14:59.190 ,5,0,0.,24.0,0.,24.0,0.,24.0,0.,24.0
1989-08-24T10:15:23.190 ,4,1,0.,24.0,0.,24.0,0.,24.0,0.,24.0
1989-08-24T10:15:47.190 ,4,0,0.,24.0,0.,24.0,0.,24.0,0.,24.0
1989-08-24T10:16:11.190 ,3,1,0.,24.0,0.,24.0,0.,24.0,0.,24.0
1989-08-24T10:16:35.190 ,3,0,0.,24.0,0.,24.0,0.,24.0,0.,24.0
1989-08-24T10:16:59.190 ,2,1,0.,24.0,0.,24.0,0.,24.0,0.,24.0
1989-08-24T10:17:23.190 ,2,0,0.,24.0,0.,24.0,0.,24.0,0.,24.0
1989-08-24T10:17:47.190 ,1,1,0.,24.0,0.,24.0,0.,24.0,0.,24.0
1989-08-24T10:18:11.190 ,1,0,0.,24.0,0.,24.0,0.,24.0,0.,24.0
1989-08-24T10:18:35.190 ,0,1,0.,24.0,0.,24.0,0.,24.0,0.,24.0
1989-08-24T10:18:59.190 ,0,0,0.,24.0,0.,24.0,0.,24.0,0.,24.0
1989-08-24T10:19:23.190 ,0,1,0.,24.0,0.,24.0,0.,24.0,0.,24.0
1989-08-24T10:19:47.190 ,0,0,0.,24.0,0.,24.0,0.,24.0,0.,24.0
1989-08-24T10:20:11.190 ,1,1,0.,24.0,0.,24.0,0.,24.0,0.,24.0
1989-08-24T10:20:35.190 ,1,0,0.,24.0,0.,24.0,0.,24.0,0.,24.0
1989-08-24T10:20:59.190 ,2,1,0.,24.0,0.,24.0,0.,24.0,0.,24.0
1989-08-24T10:21:23.190 ,2,0,0.,24.0,0.,24.0,0.,24.0,0.,24.0
1989-08-24T10:21:47.190 ,3,1,0.,24.0,0.,24.0,0.,24.0,0.,24.0
1989-08-24T10:22:11.190 ,3,0,0.,24.0,0.,24.0,0.,24.0,0.,24.0
1989-08-24T10:22:35.190 ,4,1,0.,24.0,0.,24.0,0.,24.0,0.,24.0
1989-08-24T10:22:59.190 ,4,0,0.,24.0,0.,24.0,0.,24.0,0.,24.0
1989-08-24T10:23:23.190 ,5,1,0.,24.0,0.,24.0,0.,24.0,0.,24.0
1989-08-24T10:23:47.190 ,5,0,0.,24.0,0.,24.0,0.,24.0,0.,24.0
1989-08-24T10:24:11.190 ,6,1,1.,24.0,0.,24.0,0.,24.0,0.,24.0
1989-08-24T10:24:35.190 ,6,0,0.,24.0,0.,24.0,0.,24.0,0.,24.0
1989-08-24T10:24:59.190 ,7,1,5.,24.0,0.,24.0,0.,24.0,0.,24.0
1989-08-24T10:25:23.190 ,7,0,40.,24.0,0.,24.0,0.,24.0,0.,24.0
1989-08-24T10:25:47.190 ,7,1,27.,24.0,0.,24.0,0.,24.0,0.,24.0
1989-08-24T10:26:11.190 ,7,0,36.,24.0,0.,24.0,0.,24.0,0.,24.0
1989-08-24T10:26:35.190 ,6,1,28.,24.0,0.,24.0,0.,24.0,0.,24.0
1989-08-24T10:26:59.190 ,6,0,0.,24.0,0.,24.0,0.,24.0,0.,24.0
1989-08-24T10:27:23.190 ,5,1,0.,24.0,0.,24.0,0.,24.0,0.,24.0
1989-08-24T10:27:47.190 ,5,0,0.,24.0,0.,24.0,0.,24.0,0.,24.0
1989-08-24T10:28:11.190 ,4,1,0.,24.0,0.,24.0,0.,24.0,0.,24.0
1989-08-24T10:28:35.190 ,4,0,0.,24.0,0.,24.0,0.,24.0,0.,24.0
1989-08-24T10:28:59.190 ,3,1,0.,24.0,0.,24.0,0.,24.0,0.,24.0
1989-08-24T10:29:23.190 ,3,0,0.,24.0,0.,24.0,0.,24.0,0.,24.0
1989-08-24T10:29:47.190 ,2,1,0.,24.0,0.,24.0,0.,24.0,0.,24.0
1989-08-24T10:30:11.190 ,2,0,0.,24.0,0.,24.0,0.,24.0,0.,24.0
1989-08-24T10:30:35.190 ,1,1,0.,24.0,0.,24.0,0.,24.0,0.,24.0
1989-08-24T10:30:59.190 ,1,0,0.,24.0,0.,24.0,0.,24.0,0.,24.0
1989-08-24T10:31:23.190 ,0,1,0.,24.0,0.,24.0,0.,24.0,0.,24.0
1989-08-24T10:31:47.190 ,0,0,0.,24.0,0.,24.0,0.,24.0,0.,24.0
1989-08-24T10:32:11.190 ,0,1,0.,24.0,0.,24.0,0.,24.0,0.,24.0
1989-08-24T10:32:35.190 ,0,0,0.,24.0,0.,24.0,0.,24.0,0.,24.0
1989-08-24T10:32:59.190 ,1,1,0.,24.0,0.,24.0,0.,24.0,0.,24.0
1989-08-24T10:33:23.190 ,1,0,0.,24.0,0.,24.0,0.,24.0,0.,24.0
1989-08-24T10:33:47.190 ,2,1,0.,24.0,0.,24.0,0.,24.0,0.,24.0
1989-08-24T10:34:11.190 ,2,0,0.,24.0,0.,24.0,0.,24.0,0.,24.0
1989-08-24T10:34:35.190 ,3,1,0.,24.0,0.,24.0,0.,24.0,0.,24.0
1989-08-24T10:34:59.190 ,3,0,0.,24.0,0.,24.0,0.,24.0,0.,24.0
1989-08-24T10:35:23.190 ,4,1,0.,24.0,0.,24.0,0.,24.0,0.,24.0
1989-08-24T10:35:47.190 ,4,0,0.,24.0,0.,24.0,0.,24.0,0.,24.0
1989-08-24T10:36:11.190 ,5,1,0.,24.0,0.,24.0,0.,24.0,0.,24.0
1989-08-24T10:36:35.190 ,5,0,0.,24.0,0.,24.0,0.,24.0,0.,24.0
1989-08-24T10:36:59.190 ,6,1,0.,24.0,0.,24.0,0.,24.0,0.,24.0
1989-08-24T10:37:23.190 ,6,0,0.,24.0,0.,24.0,0.,24.0,0.,24.0
1989-08-24T10:37:47.190 ,7,1,7.,24.0,0.,24.0,0.,24.0,0.,24.0
1989-08-24T10:38:11.190 ,7,0,28.,24.0,0.,24.0,0.,24.0,0.,24.0
1989-08-24T10:38:35.190 ,7,1,38.,24.0,0.,24.0,0.,24.0,0.,24.0
1989-08-24T10:38:59.190 ,7,0,25.,24.0,0.,24.0,0.,24.0,0.,24.0
1989-08-24T10:39:23.190 ,6,1,23.,24.0,0.,24.0,0.,24.0,0.,24.0
1989-08-24T10:39:47.190 ,6,0,0.,24.0,0.,24.0,0.,24.0,0.,24.0
1989-08-24T10:40:11.190 ,5,1,0.,24.0,0.,24.0,0.,24.0,0.,24.0
1989-08-24T10:40:35.190 ,5,0,0.,24.0,0.,24.0,0.,24.0,0.,24.0
1989-08-24T10:40:59.190 ,4,1,0.,24.0,0.,24.0,0.,24.0,0.,24.0
1989-08-24T10:41:23.190 ,4,0,0.,24.0,0.,24.0,0.,24.0,0.,24.0
1989-08-24T10:41:47.190 ,3,1,0.,24.0,0.,24.0,0.,24.0,0.,24.0
1989-08-24T10:42:11.190 ,3,0,0.,24.0,0.,24.0,0.,24.0,0.,24.0
1989-08-24T10:42:35.190 ,2,1,0.,24.0,0.,24.0,0.,24.0,0.,24.0
1989-08-24T10:42:59.190 ,2,0,0.,24.0,0.,24.0,0.,24.0,0.,24.0
1989-08-24T10:43:23.190 ,1,1,1.,24.0,0.,24.0,0.,24.0,0.,24.0
1989-08-24T10:43:47.190 ,1,0,1.,24.0,0.,24.0,0.,24.0,0.,24.0
1989-08-24T10:44:11.190 ,0,1,0.,24.0,0.,24.0,0.,24.0,0.,24.0
1989-08-24T10:44:35.190 ,0,0,0.,24.0,0.,24.0,0.,24.0,0.,24.0
1989-08-24T10:44:59.190 ,0,1,0.,24.0,0.,24.0,0.,24.0,0.,24.0
1989-08-24T10:45:23.190 ,0,0,0.,24.0,0.,24.0,0.,24.0,0.,24.0
1989-08-24T10:45:47.190 ,1,1,0.,24.0,0.,24.0,0.,24.0,0.,24.0
1989-08-24T10:46:11.190 ,1,0,0.,24.0,0.,24.0,0.,24.0,0.,24.0
1989-08-24T10:46:35.190 ,2,1,0.,24.0,0.,24.0,0.,24.0,0.,24.0
1989-08-24T10:46:59.190 ,2,0,1.,24.0,0.,24.0,0.,24.0,0.,24.0
1989-08-24T10:47:23.190 ,3,1,0.,24.0,1.,24.0,0.,24.0,0.,24.0
1989-08-24T10:47:47.190 ,3,0,0.,24.0,1.,24.0,0.,24.0,0.,24.0
1989-08-24T10:48:11.190 ,4,1,0.,24.0,0.,24.0,0.,24.0,0.,24.0
1989-08-24T10:48:35.190 ,0,0,0.,24.0,0.,24.0,0.,24.0,0.,24.0
1989-08-24T10:48:52.590 ,0,0,,0,,0,,0,,0
1989-08-24T10:48:59.190 ,5,1,0.,24.0,0.,24.0,0.,24.0,0.,24.0
1989-08-24T10:49:23.190 ,5,0,0.,24.0,0.,24.0,0.,24.0,0.,24.0
1989-08-24T10:49:47.190 ,6,1,0.,24.0,0.,24.0,0.,24.0,0.,24.0
1989-08-24T10:50:11.190 ,6,0,0.,24.0,0.,24.0,0.,24.0,0.,24.0
1989-08-24T10:50:35.190 ,7,1,6.,24.0,0.,24.0,0.,24.0,0.,24.0
1989-08-24T10:50:59.190 ,7,0,34.,24.0,1.,24.0,0.,24.0,0.,24.0
1989-08-24T10:51:23.190 ,7,1,26.,24.0,0.,24.0,0.,24.0,0.,24.0
1989-08-24T10:51:47.190 ,7,0,21.,24.0,0.,24.0,0.,24.0,0.,24.0
1989-08-24T10:52:11.190 ,6,1,25.,24.0,0.,24.0,0.,24.0,0.,24.0
1989-08-24T10:52:35.190 ,6,0,0.,24.0,0.,24.0,0.,24.0,0.,24.0
1989-08-24T10:52:59.190 ,5,1,0.,24.0,0.,24.0,0.,24.0,0.,24.0
1989-08-24T10:53:23.190 ,5,0,0.,24.0,0.,24.0,0.,24.0,0.,24.0
1989-08-24T10:53:47.190 ,4,1,0.,24.0,0.,24.0,0.,24.0,0.,24.0
1989-08-24T10:54:11.190 ,4,0,0.,24.0,0.,24.0,0.,24.0,0.,24.0
1989-08-24T10:54:35.190 ,3,1,0.,24.0,0.,24.0,0.,24.0,0.,24.0
1989-08-24T10:54:59.190 ,3,0,0.,24.0,0.,24.0,0.,24.0,0.,24.0
1989-08-24T10:55:23.190 ,2,1,0.,24.0,0.,24.0,0.,24.0,0.,24.0
1989-08-24T10:55:47.190 ,2,0,0.,24.0,0.,24.0,0.,24.0,0.,24.0
1989-08-24T10:56:11.190 ,1,1,0.,24.0,0.,24.0,0.,24.0,0.,24.0
1989-08-24T10:56:35.190 ,1,0,0.,24.0,0.,24.0,0.,24.0,0.,24.0
1989-08-24T10:56:59.190 ,0,1,0.,24.0,0.,24.0,0.,24.0,0.,24.0
1989-08-24T10:57:23.190 ,0,0,0.,24.0,0.,24.0,0.,24.0,0.,24.0
1989-08-24T10:57:47.190 ,0,1,0.,24.0,0.,24.0,0.,24.0,0.,24.0
1989-08-24T10:58:11.190 ,0,0,0.,24.0,0.,24.0,0.,24.0,0.,24.0
1989-08-24T10:58:35.190 ,1,1,0.,24.0,0.,24.0,0.,24.0,0.,24.0
1989-08-24T10:58:59.190 ,1,0,0.,24.0,0.,24.0,0.,24.0,0.,24.0
1989-08-24T10:59:23.190 ,2,1,0.,24.0,0.,24.0,0.,24.0,0.,24.0
1989-08-24T10:59:47.190 ,2,0,0.,24.0,0.,24.0,0.,24.0,0.,24.0
1989-08-24T11:00:11.190 ,3,1,0.,24.0,0.,24.0,0.,24.0,0.,24.0
1989-08-24T11:00:35.190 ,3,0,0.,24.0,0.,24.0,0.,24.0,0.,24.0
1989-08-24T11:00:59.190 ,4,1,0.,24.0,0.,24.0,0.,24.0,0.,24.0
1989-08-24T11:01:23.190 ,4,0,0.,24.0,0.,24.0,0.,24.0,0.,24.0
1989-08-24T11:01:47.190 ,5,1,0.,24.0,0.,24.0,0.,24.0,0.,24.0
1989-08-24T11:02:11.190 ,5,0,0.,24.0,0.,24.0,0.,24.0,0.,24.0
1989-08-24T11:02:35.190 ,6,1,0.,24.0,0.,24.0,0.,24.0,0.,24.0
1989-08-24T11:02:59.190 ,6,0,0.,24.0,0.,24.0,0.,24.0,0.,24.0
1989-08-24T11:03:23.190 ,7,1,16.,24.0,0.,24.0,0.,24.0,0.,24.0
1989-08-24T11:03:47.190 ,7,0,32.,24.0,0.,24.0,0.,24.0,0.,24.0
1989-08-24T11:04:11.190 ,7,1,24.,24.0,0.,24.0,0.,24.0,0.,24.0
1989-08-24T11:04:35.190 ,7,0,23.,24.0,0.,24.0,0.,24.0,0.,24.0
1989-08-24T11:04:59.190 ,6,1,32.,24.0,0.,24.0,0.,24.0,0.,24.0
1989-08-24T11:05:23.190 ,6,0,0.,24.0,0.,24.0,0.,24.0,0.,24.0
1989-08-24T11:05:47.190 ,5,1,0.,24.0,0.,24.0,0.,24.0,0.,24.0
1989-08-24T11:06:11.190 ,5,0,0.,24.0,0.,24.0,0.,24.0,0.,24.0
1989-08-24T11:06:35.190 ,4,1,0.,24.0,0.,24.0,0.,24.0,0.,24.0
1989-08-24T11:06:59.190 ,4,0,0.,24.0,0.,24.0,0.,24.0,0.,24.0
1989-08-24T11:07:23.190 ,3,1,0.,24.0,0.,24.0,0.,24.0,0.,24.0
1989-08-24T11:07:47.190 ,3,0,0.,24.0,0.,24.0,0.,24.0,0.,24.0
1989-08-24T11:08:11.190 ,2,1,0.,24.0,0.,24.0,0.,24.0,0.,24.0
1989-08-24T11:08:35.190 ,2,0,0.,24.0,0.,24.0,0.,24.0,0.,24.0
1989-08-24T11:08:59.190 ,1,1,0.,24.0,0.,24.0,0.,24.0,0.,24.0
1989-08-24T11:09:23.190 ,1,0,0.,24.0,0.,24.0,0.,24.0,0.,24.0
1989-08-24T11:09:47.190 ,0,1,0.,24.0,0.,24.0,0.,24.0,0.,24.0
1989-08-24T11:10:11.190 ,0,0,0.,24.0,0.,24.0,0.,24.0,0.,24.0
1989-08-24T11:10:35.190 ,0,1,0.,24.0,0.,24.0,0.,24.0,0.,24.0
1989-08-24T11:10:59.190 ,0,0,0.,24.0,0.,24.0,0.,24.0,0.,24.0
1989-08-24T11:11:23.190 ,1,1,0.,24.0,0.,24.0,0.,24.0,0.,24.0
1989-08-24T11:11:47.190 ,1,0,0.,24.0,0.,24.0,0.,24.0,0.,24.0
1989-08-24T11:12:11.190 ,2,1,0.,24.0,0.,24.0,0.,24.0,0.,24.0
1989-08-24T11:12:35.190 ,2,0,0.,24.0,0.,24.0,0.,24.0,0.,24.0
1989-08-24T11:12:59.190 ,3,1,0.,24.0,0.,24.0,0.,24.0,0.,24.0
1989-08-24T11:13:23.190 ,3,0,0.,24.0,0.,24.0,0.,24.0,0.,24.0
1989-08-24T11:13:47.190 ,4,1,0.,24.0,0.,24.0,0.,24.0,0.,24.0
1989-08-24T11:14:11.190 ,4,0,0.,24.0,0.,24.0,0.,24.0,0.,24.0
1989-08-24T11:14:35.190 ,5,1,0.,24.0,0.,24.0,0.,24.0,0.,24.0
1989-08-24T11:14:59.190 ,5,0,0.,24.0,0.,24.0,0.,24.0,0.,24.0
1989-08-24T11:15:23.190 ,6,1,0.,24.0,0.,24.0,0.,24.0,0.,24.0
1989-08-24T11:15:47.190 ,6,0,0.,24.0,0.,24.0,0.,24.0,0.,24.0
1989-08-24T11:16:11.190 ,7,1,10.,24.0,0.,24.0,0.,24.0,0.,24.0
1989-08-24T11:16:35.190 ,7,0,31.,24.0,0.,24.0,0.,24.0,0.,24.0
1989-08-24T11:16:59.190 ,7,1,37.,24.0,0.,24.0,0.,24.0,0.,24.0
1989-08-24T11:17:23.190 ,7,0,21.,24.0,0.,24.0,0.,24.0,0.,24.0
1989-08-24T11:17:47.190 ,6,1,22.,24.0,0.,24.0,0.,24.0,0.,24.0
1989-08-24T11:18:11.190 ,6,0,0.,24.0,0.,24.0,0.,24.0,0.,24.0
1989-08-24T11:18:35.190 ,5,1,0.,24.0,0.,24.0,0.,24.0,0.,24.0
1989-08-24T11:18:59.190 ,5,0,0.,24.0,0.,24.0,0.,24.0,0.,24.0
1989-08-24T11:19:23.190 ,4,1,0.,24.0,0.,24.0,0.,24.0,0.,24.0
1989-08-24T11:19:47.190 ,4,0,0.,24.0,1.,24.0,0.,24.0,0.,24.0
1989-08-24T11:20:11.190 ,3,1,0.,24.0,0.,24.0,0.,24.0,0.,24.0
1989-08-24T11:20:35.190 ,3,0,0.,24.0,0.,24.0,0.,24.0,0.,24.0
1989-08-24T11:20:59.190 ,2,1,0.,24.0,0.,24.0,0.,24.0,0.,24.0
1989-08-24T11:21:23.190 ,2,0,0.,24.0,0.,24.0,0.,24.0,0.,24.0
1989-08-24T11:21:47.190 ,1,1,0.,24.0,0.,24.0,0.,24.0,0.,24.0
1989-08-24T11:22:11.190 ,1,0,1.,24.0,0.,24.0,0.,24.0,0.,24.0
1989-08-24T11:22:35.190 ,0,1,0.,24.0,0.,24.0,0.,24.0,0.,24.0
1989-08-24T11:22:59.190 ,0,0,0.,24.0,0.,24.0,0.,24.0,0.,24.0
1989-08-24T11:23:23.190 ,0,1,0.,24.0,0.,24.0,0.,24.0,0.,24.0
1989-08-24T11:23:47.190 ,0,0,0.,24.0,0.,24.0,0.,24.0,0.,24.0
1989-08-24T11:24:11.190 ,1,1,1.,24.0,0.,24.0,0.,24.0,0.,24.0
1989-08-24T11:24:35.190 ,1,0,0.,24.0,0.,24.0,0.,24.0,0.,24.0
1989-08-24T11:24:59.190 ,2,1,0.,24.0,0.,24.0,0.,24.0,0.,24.0
1989-08-24T11:25:23.190 ,2,0,0.,24.0,0.,24.0,0.,24.0,0.,24.0
1989-08-24T11:25:47.190 ,3,1,0.,24.0,0.,24.0,0.,24.0,0.,24.0
1989-08-24T11:26:11.190 ,3,0,0.,24.0,0.,24.0,0.,24.0,0.,24.0
1989-08-24T11:26:35.190 ,4,1,0.,24.0,0.,24.0,0.,24.0,0.,24.0
1989-08-24T11:26:59.190 ,4,0,0.,24.0,0.,24.0,0.,24.0,0.,24.0
1989-08-24T11:27:23.190 ,5,1,0.,24.0,0.,24.0,0.,24.0,0.,24.0
1989-08-24T11:27:47.190 ,5,0,0.,24.0,0.,24.0,0.,24.0,0.,24.0
1989-08-24T11:28:11.190 ,6,1,1.,24.0,0.,24.0,0.,24.0,0.,24.0
1989-08-24T11:28:35.190 ,0,0,0.,24.0,0.,24.0,0.,24.0,0.,24.0
1989-08-24T11:28:59.190 ,7,1,9.,24.0,0.,24.0,0.,24.0,0.,24.0
1989-08-24T11:29:23.190 ,7,0,30.,24.0,0.,24.0,0.,24.0,0.,24.0
1989-08-24T11:29:47.190 ,7,1,40.,24.0,0.,24.0,0.,24.0,0.,24.0
1989-08-24T11:30:11.190 ,7,0,30.,24.0,0.,24.0,0.,24.0,0.,24.0
1989-08-24T11:30:35.190 ,6,1,33.,24.0,0.,24.0,0.,24.0,0.,24.0
1989-08-24T11:30:59.190 ,6,0,0.,24.0,0.,24.0,0.,24.0,0.,24.0
1989-08-24T11:31:23.190 ,5,1,0.,24.0,0.,24.0,0.,24.0,0.,24.0
1989-08-24T11:31:47.190 ,5,0,0.,24.0,0.,24.0,0.,24.0,0.,24.0
1989-08-24T11:32:11.190 ,4,1,0.,24.0,0.,24.0,0.,24.0,0.,24.0
1989-08-24T11:32:35.190 ,4,0,1.,24.0,0.,24.0,0.,24.0,0.,24.0
1989-08-24T11:32:59.190 ,3,1,0.,24.0,0.,24.0,0.,24.0,0.,24.0